Theta_e
312 313 317 312 314 317 318 318 317 317 318 320 320 324 323 322 326 330 333 339 339 342 343 339 340 344 341 341 341 340 338 338 339 340 340 340 339 338 337 336 336 337 339 341 340 337 336 333 331
317 315 316 311 312 314 315 314 315 316 317 319 320 320 323 323 324 329 335 338 339 342 343 338 340 344 342 341 340 339 339 339 339 339 339 339 339 338 337 336 337 338 340 339 337 336 333 332 331
318 314 311 310 311 312 313 314 315 316 316 317 319 319 320 322 322 323 335 338 338 341 343 342 341 343 342 342 341 339 339 338 338 339 339 339 339 338 337 337 337 339 340 337 335 332 330 330 331
316 314 310 310 311 312 311 312 314 315 315 317 318 318 318 319 323 331 336 337 339 342 342 343 341 343 342 342 340 340 339 339 338 338 339 339 338 338 337 336 338 338 337 334 331 329 330 330 330
314 311 310 310 311 312 312 313 313 314 314 314 314 317 317 318 322 328 334 337 339 341 343 344 342 343 342 341 340 339 339 339 338 338 338 338 337 337 337 338 338 336 334 330 327 327 328 328 328
313 310 312 311 311 312 312 313 314 314 314 313 312 313 315 318 320 325 332 336 339 340 344 343 341 342 342 341 339 338 338 339 338 338 338 337 338 338 338 337 334 333 330 326 324 321 317 312 311
313 312 311 311 312 312 313 313 313 313 313 313 313 313 313 314 320 324 331 337 339 343 343 341 341 342 342 341 338 339 339 338 338 338 339 339 338 337 335 332 332 329 324 322 316 308 305 304 304
313 312 312 311 311 311 312 313 314 314 313 313 313 312 311 312 321 328 334 339 341 341 341 341 341 341 341 340 338 338 338 337 337 338 338 338 336 333 331 330 326 323 321 317 308 305 304 303 302
311 313 313 311 310 310 311 311 312 312 313 313 312 311 311 321 324 334 336 337 339 339 340 343 342 341 341 339 338 337 338 337 336 338 336 335 333 331 328 324 320 320 317 311 306 303 302 302 302
312 313 312 310 310 310 310 310 311 311 312 311 310 310 311 319 327 333 333 334 336 339 342 341 341 340 339 338 337 337 337 337 337 337 335 332 331 330 322 319 318 317 314 311 305 302 301 302 301
309 313 311 311 310 309 309 309 309 309 310 312 311 309 310 313 318 331 332 334 335 339 342 342 340 339 339 336 336 336 336 336 336 334 332 331 328 322 319 318 316 313 309 305 302 301 303 305 305
308 309 309 310 310 309 308 308 308 308 308 311 311 310 311 311 314 317 330 332 335 338 338 340 339 338 336 335 334 334 334 334 333 332 330 327 323 319 317 315 314 310 305 303 301 303 304 304 304
299 302 306 308 308 308 308 308 307 307 308 310 310 310 310 310 312 316 323 329 332 335 337 339 338 337 335 334 333 332 333 332 331 330 326 322 320 317 315 313 312 308 309 304 303 303 303 302 302
299 299 300 301 304 307 307 307 306 306 307 308 308 308 309 310 312 316 320 322 330 334 335 338 337 336 334 333 332 331 330 330 330 327 323 320 319 315 314 313 312 310 305 304 304 303 302 303 302
298 299 299 299 298 302 305 308 309 306 306 307 308 309 308 309 309 308 316 320 324 332 335 336 336 335 333 332 331 330 329 328 328 325 322 318 315 314 313 312 311 307 304 304 304 303 303 303 303
297 297 298 299 300 301 301 305 307 308 307 307 307 307 308 309 309 309 310 316 321 329 331 334 335 333 332 330 329 328 328 327 326 324 321 319 314 312 311 309 307 305 304 304 304 303 303 303 302
295 297 296 297 298 299 300 302 303 307 308 307 307 307 307 307 309 310 310 311 321 327 328 330 332 332 330 329 328 327 326 326 325 324 323 318 312 310 308 307 306 305 304 303 303 302 302 303 303
295 294 295 296 297 299 297 298 301 303 306 306 307 307 307 306 307 309 310 310 313 325 327 327 328 330 329 326 326 325 324 324 324 324 324 321 314 308 307 306 305 305 303 303 303 302 303 303 302
297 296 297 297 297 297 297 297 299 299 304 305 307 305 307 307 307 307 309 310 313 321 327 327 327 327 327 323 321 319 319 321 321 321 321 320 316 309 306 306 305 305 303 303 303 303 303 303 302
297 296 295 295 295 294 294 295 297 298 299 300 302 304 306 306 306 306 308 309 312 320 324 326 327 326 326 324 322 320 320 319 321 319 318 318 318 315 308 305 305 304 303 302 302 302 302 302 302
296 296 296 295 294 294 294 294 295 296 297 298 299 302 303 305 306 306 306 308 310 316 321 324 326 325 324 324 321 321 319 318 315 314 316 317 319 317 312 305 305 304 303 302 302 302 301 301 301
299 297 296 296 296 297 295 297 297 296 296 297 298 300 302 302 304 305 305 307 313 315 318 320 322 323 322 322 320 320 318 316 316 314 314 313 312 313 313 307 305 304 303 302 302 302 302 301 301
298 298 298 297 295 295 295 296 295 296 296 296 297 298 301 302 303 305 304 305 311 314 315 316 318 322 320 320 319 319 318 317 317 314 313 311 311 313 314 308 305 304 303 302 302 302 301 301 301
298 300 299 297 296 297 295 295 294 295 296 296 297 298 300 303 303 304 304 306 307 309 312 315 318 320 319 319 318 318 317 317 316 314 311 309 309 309 310 309 305 304 303 302 302 302 301 301 302
296 297 298 298 296 294 295 297 296 296 296 297 297 298 300 304 304 304 304 304 306 307 308 313 318 319 318 317 317 317 316 317 317 314 312 310 308 307 306 308 305 304 303 302 302 301 301 300 301
296 298 299 298 297 298 297 299 298 297 296 297 297 300 301 304 303 301 300 300 299 299 302 309 315 317 317 316 316 316 315 315 316 315 314 312 310 309 307 306 305 304 303 302 301 301 301 300 300
299 299 299 299 298 299 297 296 298 294 293 295 297 298 297 299 297 296 295 294 292 292 293 294 297 301 312 316 315 315 315 314 315 316 314 313 311 309 308 306 305 304 304 302 301 301 300 299 299
297 298 295 295 301 294 295 299 295 292 292 292 295 295 294 293 293 292 291 290 290 290 290 290 291 293 297 303 313 315 314 314 314 315 316 314 312 309 308 306 304 303 303 302 300 300 299 298 298
295 294 295 295 295 300 299 296 293 292 291 290 291 292 293 292 291 290 290 290 289 289 289 290 290 290 292 296 304 311 313 312 312 313 314 314 311 309 307 306 304 303 302 301 300 299 299 298 297
295 294 293 295 294 296 302 293 292 290 289 289 289 290 291 290 289 289 290 290 289 289 288 288 289 290 291 292 295 304 310 310 310 311 311 312 311 308 308 307 306 304 302 300 299 299 298 297 296
Wind_Speed
11 13 7 8 4 6 14 17 16 19 22 8 9 5 7 10 7 4 4 5 15 21 25 33 35 32 30 29 27 27 26 26 24 21 24 24 23 21 19 19 18 17 17 17 15 13 12 11 11
8 11 11 3 7 13 13 19 21 20 17 3 1 8 5 14 5 3 7 10 17 20 23 35 36 33 31 29 27 26 27 26 26 24 24 24 23 22 21 19 18 18 18 17 14 12 11 11 10
13 17 3 4 10 17 17 18 15 19 18 14 6 7 7 5 7 10 9 14 15 22 22 31 35 33 31 29 28 27 27 27 27 26 25 25 24 23 22 20 20 19 18 16 13 12 12 12 11
7 4 5 8 21 21 26 22 20 22 12 4 7 5 6 18 3 11 11 10 13 23 22 28 33 33 31 30 28 27 27 26 26 27 27 26 25 23 22 22 21 21 17 15 15 14 14 13 12
15 4 9 14 26 24 20 22 24 25 19 8 6 12 14 6 4 3 5 9 14 22 27 30 33 32 32 31 29 27 27 27 26 26 27 28 25 23 23 23 22 19 15 16 16 15 14 12 11
4 5 9 19 29 25 23 23 23 19 17 11 10 7 10 17 11 9 8 12 15 21 28 30 33 33 32 31 30 28 28 27 27 27 27 27 25 26 25 23 21 17 16 17 15 14 13 11 11
15 11 17 22 24 23 23 22 22 23 24 22 8 8 6 10 11 12 12 14 18 21 24 25 32 33 31 30 30 29 26 26 27 29 30 30 30 28 25 22 19 18 18 17 15 13 12 10 10
11 11 22 22 24 33 22 22 21 24 25 17 9 13 8 8 22 17 14 15 16 19 23 27 32 34 33 30 30 29 27 25 28 30 33 35 31 27 24 21 22 20 18 16 14 11 9 9 10
17 15 18 30 31 31 13 20 25 22 19 14 8 7 11 12 16 14 12 11 12 19 25 27 32 34 33 33 31 30 28 26 27 29 29 31 30 26 22 23 22 20 17 15 14 12 11 10 11
18 18 30 31 28 25 22 25 24 19 23 10 8 8 22 13 19 14 10 13 20 25 24 31 32 35 36 34 32 32 31 29 31 31 29 28 25 23 23 22 23 21 18 17 15 13 13 11 9
21 24 27 27 29 27 29 28 19 20 24 19 10 12 15 8 8 11 16 19 26 25 24 30 32 35 37 36 35 34 34 36 34 33 29 25 24 24 24 24 24 22 19 17 16 15 13 12 7
23 25 28 30 29 27 27 24 22 22 27 18 12 9 7 14 12 11 15 21 23 25 29 26 34 34 38 35 33 36 37 36 34 31 27 27 27 28 25 26 24 22 19 17 17 14 13 14 12
23 28 27 27 29 28 23 27 25 26 27 18 17 16 7 8 9 16 21 24 23 27 29 28 34 36 38 36 31 35 37 35 32 31 28 29 29 28 26 25 22 22 20 18 17 15 13 13 12
20 24 27 26 27 26 28 29 26 32 23 20 17 19 13 8 7 8 12 15 26 28 32 32 33 36 38 36 36 35 36 38 35 34 28 27 27 27 26 26 24 22 21 19 17 15 14 12 11
16 22 20 24 27 28 23 28 28 27 23 22 20 19 18 14 9 9 14 21 19 27 29 33 33 35 38 39 39 38 36 37 38 35 30 27 26 28 26 28 25 22 19 18 17 16 15 14 12
21 22 18 19 20 24 23 28 24 19 23 25 20 20 20 21 18 16 17 17 23 22 23 26 35 34 38 37 37 37 38 38 39 37 33 31 26 27 27 26 24 22 21 21 21 20 18 14 14
14 19 23 26 22 23 27 28 25 22 24 22 25 24 23 21 19 26 27 23 21 28 29 30 29 36 35 37 36 37 39 39 39 38 34 32 30 28 25 24 23 24 24 22 19 18 18 17 15
19 18 20 22 19 18 29 28 24 30 29 26 22 19 18 28 27 22 25 29 26 25 31 33 33 33 37 31 36 36 37 38 39 40 38 34 34 29 28 24 25 25 24 22 20 19 17 17 17
24 24 24 20 23 23 23 23 22 26 22 29 25 21 21 20 22 35 27 21 28 28 29 32 30 31 32 31 29 29 31 36 38 38 39 37 35 33 30 29 28 27 27 26 25 23 21 17 17
22 24 23 20 19 20 21 23 22 25 21 19 20 20 27 26 20 15 29 33 28 30 32 31 35 34 36 33 31 24 29 33 39 38 37 37 35 34 34 32 32 31 28 27 27 26 23 14 22
22 21 22 22 22 22 21 24 21 22 21 21 21 19 22 18 14 17 10 22 29 30 32 34 35 38 39 34 30 22 25 22 24 30 37 39 39 38 36 34 34 33 32 31 31 30 29 17 23
21 19 22 23 18 15 10 16 17 18 22 21 20 19 17 19 14 8 7 8 19 23 25 27 30 36 36 34 31 29 27 22 23 34 35 34 38 38 37 36 34 34 33 34 34 33 30 26 22
13 15 17 16 14 13 19 9 15 16 21 17 20 22 19 18 20 14 9 6 19 25 28 27 28 31 32 36 33 32 29 28 23 27 29 32 37 39 39 39 37 36 36 34 35 34 32 28 25
17 15 14 11 8 13 18 11 16 17 22 16 19 21 23 21 21 16 9 12 14 25 21 22 25 31 37 39 38 35 32 28 23 27 29 31 34 37 41 41 41 40 39 38 36 35 34 31 27
6 7 3 4 6 10 10 12 19 11 20 20 21 22 19 22 21 17 13 10 8 18 26 27 29 26 32 35 37 39 38 35 32 31 30 29 30 33 40 45 43 42 41 40 38 36 35 35 32
16 4 3 5 3 8 9 6 4 11 15 17 7 8 18 7 6 14 16 11 11 17 16 4 16 21 27 29 32 33 33 33 32 30 32 32 35 37 38 45 41 41 43 41 40 38 37 36 34
6 8 13 7 16 8 5 7 4 19 20 19 15 17 16 16 16 15 14 12 16 18 18 13 10 6 12 24 26 27 29 30 31 29 30 32 31 34 40 43 43 42 44 43 43 41 39 37 34
6 6 7 3 5 3 4 0 7 16 15 15 14 14 12 12 15 14 12 12 17 16 15 14 12 11 11 7 18 27 28 31 30 30 29 32 34 34 39 42 44 42 42 43 43 41 38 37 34
5 6 5 7 4 3 3 3 8 10 10 11 11 11 10 12 12 10 9 10 13 12 11 10 12 13 14 13 10 16 28 31 33 33 34 31 33 34 36 40 40 41 42 43 44 42 40 38 36
3 4 6 4 5 5 4 3 4 9 9 11 10 11 9 8 9 9 9 9 12 11 11 10 10 11 11 12 14 10 20 26 29 34 35 32 33 34 36 37 40 43 46 47 49 46 44 42 39
Wind_Direction
235 217 246 254 238 235 237 236 252 257 267 265 293 291 274 248 231 208 148 115 121 163 173 181 179 179 180 179 181 181 181 179 179 174 172 171 171 169 168 164 164 162 148 139 134 136 132 131 135
229 208 232 258 241 239 234 242 239 249 259 170 303 308 255 272 251 167 154 165 146 163 176 179 179 180 181 183 182 182 182 182 178 176 174 172 173 170 168 167 164 156 143 140 138 133 138 133 133
241 213 230 211 240 237 245 246 243 242 242 235 194 228 263 260 245 264 131 158 152 165 173 175 178 182 181 183 182 182 183 183 179 176 175 172 171 171 169 167 160 147 142 140 141 137 140 138 136
231 208 266 248 238 232 236 253 266 286 308 217 219 215 197 245 282 46 118 144 164 163 171 177 181 183 185 183 183 181 184 185 179 179 176 169 171 171 169 166 158 154 145 139 134 141 143 143 141
247 230 231 236 244 248 251 236 242 257 270 263 251 240 253 240 155 197 128 149 177 168 172 179 185 185 187 184 183 183 182 183 181 179 175 167 169 166 165 160 159 153 153 136 137 145 148 149 149
218 224 239 230 243 242 239 253 269 268 269 236 249 263 252 242 198 192 176 182 187 178 178 181 184 189 189 185 181 182 182 181 178 176 173 169 164 161 161 155 153 153 149 136 138 146 148 149 145
234 232 234 246 257 256 241 240 242 246 259 258 250 224 245 245 183 180 187 184 191 177 172 189 187 189 189 185 180 177 178 177 174 171 166 159 156 152 150 158 159 154 140 138 143 147 150 148 145
239 245 254 250 254 255 250 263 250 237 237 260 221 257 250 270 176 167 178 168 169 165 178 189 189 188 187 187 183 177 174 174 174 170 166 159 155 156 159 160 150 141 145 146 151 154 154 153 150
245 235 236 238 243 245 253 252 272 279 286 231 222 250 266 113 138 137 146 173 186 186 194 182 183 186 184 184 180 175 172 170 168 164 157 154 159 164 166 155 148 148 149 150 153 154 148 147 146
235 237 235 237 244 254 256 260 269 277 275 251 233 268 279 179 161 151 168 187 197 196 191 187 183 180 181 178 174 174 171 176 176 172 168 164 166 168 161 157 154 156 154 153 156 150 142 135 134
236 240 247 253 254 260 270 267 277 271 268 262 239 217 250 221 181 168 184 201 198 197 187 183 181 184 181 174 173 175 169 172 171 169 170 168 166 162 167 163 164 164 165 163 156 149 141 132 149
265 253 248 256 258 266 272 284 280 271 266 279 267 233 248 262 185 201 189 202 198 193 195 186 178 177 177 178 172 174 174 176 175 174 168 167 167 169 171 171 172 169 165 163 156 157 165 162 163
263 267 269 265 263 264 267 265 271 271 273 278 277 280 271 275 225 205 210 202 206 198 196 190 183 176 174 174 174 175 180 181 179 171 168 171 175 175 176 174 177 172 167 173 166 174 167 163 164
292 290 288 285 281 270 253 257 262 262 267 271 267 271 257 226 247 221 217 228 200 198 192 198 182 179 179 175 179 176 178 183 181 177 175 180 184 179 179 173 181 181 180 174 175 170 165 163 166
306 300 294 279 273 272 275 270 257 253 263 259 261 261 269 269 246 223 231 210 223 199 189 190 189 182 182 180 183 179 180 180 183 180 180 179 184 182 183 182 184 185 178 175 173 167 166 170 163
276 278 283 275 279 282 263 263 265 270 248 254 248 260 262 260 254 247 252 225 216 195 188 189 190 186 183 182 182 184 185 180 179 181 185 187 187 192 191 189 185 181 178 182 180 175 171 173 168
253 270 268 276 261 262 261 268 262 266 267 255 240 244 255 256 259 243 240 244 208 199 195 205 194 194 192 185 184 184 187 183 184 187 191 193 188 190 193 190 186 186 185 186 184 179 177 169 164
266 262 268 264 266 285 266 262 266 244 248 258 259 259 248 236 247 240 237 231 218 198 191 198 204 191 192 185 182 186 188 189 191 194 199 198 195 189 187 187 188 192 188 182 181 182 181 181 172
258 269 280 294 289 285 276 281 274 256 246 242 244 252 261 255 244 237 227 229 206 197 186 190 188 190 182 172 169 176 181 189 194 195 198 199 198 193 192 193 194 197 191 187 186 184 176 173 175
286 276 276 265 271 275 279 274 274 284 285 288 277 251 232 246 246 249 217 227 195 193 191 189 192 188 191 185 189 189 189 196 200 198 200 200 202 203 201 201 200 197 192 190 191 190 177 175 181
273 267 268 269 277 275 282 279 272 266 267 267 269 274 268 245 243 236 223 209 202 196 198 196 190 188 192 192 188 190 188 189 184 194 201 205 208 206 203 203 205 201 197 195 195 196 193 171 193
275 265 269 270 274 271 279 285 281 268 260 254 260 257 259 256 268 246 253 170 169 191 201 204 201 187 187 182 183 186 182 179 197 195 201 199 204 207 207 204 206 205 203 202 201 199 198 197 183
286 293 264 266 262 274 257 257 265 256 258 251 240 248 251 241 245 238 233 188 187 193 201 208 209 183 180 184 191 192 198 199 192 190 194 196 202 211 210 208 204 207 208 207 205 202 201 201 195
276 282 271 266 269 252 251 226 259 242 242 245 247 238 239 243 228 230 232 238 190 197 190 198 200 185 185 189 195 198 202 198 190 182 186 191 198 202 211 210 207 212 211 209 210 209 204 199 209
270 292 257 223 215 249 246 220 237 254 238 238 233 237 243 229 223 219 210 217 165 169 189 195 196 188 191 193 194 203 206 202 198 189 190 189 191 196 203 210 205 208 212 210 212 209 207 207 205
306 236 278 281 253 291 312 256 269 10 338 257 283 342 16 261 72 69 53 54 60 50 60 106 198 198 197 200 204 205 210 209 204 196 196 195 196 201 203 206 205 206 212 212 212 211 211 209 208
339 324 304 269 248 262 238 277 128 12 20 6 9 36 17 12 38 41 42 37 37 29 18 15 0 359 219 213 214 209 209 207 208 207 199 199 200 201 205 210 205 207 211 211 210 210 210 208 208
292 325 327 332 296 268 269 304 342 356 356 358 12 31 10 1 22 23 22 21 29 17 2 354 345 320 300 279 228 216 211 210 208 212 210 203 202 200 204 208 208 207 210 209 209 209 209 207 207
353 2 331 279 231 270 308 68 356 357 359 356 5 15 13 18 25 21 15 20 29 14 354 348 352 341 324 289 264 227 214 217 216 214 217 217 206 200 203 206 208 209 209 206 206 207 205 205 205
93 10 322 289 318 312 284 58 17 16 1 3 5 7 20 20 26 17 13 22 21 5 1 3 6 354 335 319 275 264 222 221 221 220 222 221 210 207 209 208 212 214 211 208 207 205 205 204 203